TimeEST,TemperatureF,Dew PointF,Humidity,Sea Level PressureIn,VisibilityMPH,Wind Direction,Wind SpeedMPH,Gust SpeedMPH,PrecipitationIn,Events,Conditions,WindDirDegrees,DateUTC
12:52 AM,-11.9,-20.9,64,30.47,4.0,Variable,6.9,-,N/A,,Haze,0,1999-01-02 05:52:00
1:52 AM,-11.9,-23.1,58,30.47,10.0,Variable,5.8,16.1,N/A,,Scattered Clouds,0,1999-01-02 06:52:00
2:52 AM,-11.9,-23.1,58,30.48,10.0,WNW,10.4,20.7,N/A,,Partly Cloudy,290,1999-01-02 07:52:00
3:52 AM,-11.9,-22.0,61,30.50,10.0,West,9.2,-,N/A,,Clear,280,1999-01-02 08:52:00
4:52 AM,-11.9,-22.0,61,30.50,10.0,Variable,3.5,-,N/A,,Clear,0,1999-01-02 09:52:00
5:52 AM,-11.0,-20.9,62,30.50,10.0,West,6.9,-,N/A,,Clear,260,1999-01-02 10:52:00
6:52 AM,-11.0,-20.9,62,30.51,10.0,West,4.6,-,N/A,,Clear,280,1999-01-02 11:52:00
7:52 AM,-9.9,-20.9,59,30.51,10.0,Variable,3.5,-,N/A,,Clear,0,1999-01-02 12:52:00
8:52 AM,-7.1,-20.0,53,30.51,10.0,West,5.8,-,N/A,,Clear,280,1999-01-02 13:52:00
9:52 AM,-4.0,-18.0,51,30.53,10.0,West,11.5,18.4,N/A,,Clear,280,1999-01-02 14:52:00
10:52 AM,-2.0,-16.1,51,30.52,10.0,West,12.7,21.9,N/A,,Clear,280,1999-01-02 15:52:00
11:52 AM,-0.9,-15.0,52,30.50,10.0,WNW,6.9,19.6,N/A,,Clear,290,1999-01-02 16:52:00
12:52 PM,1.9,-13.0,50,30.48,10.0,West,9.2,19.6,N/A,,Clear,280,1999-01-02 17:52:00
1:52 PM,3.9,-11.9,48,30.48,10.0,Variable,6.9,18.4,N/A,,Clear,0,1999-01-02 18:52:00
2:52 PM,5.0,-11.0,48,30.49,10.0,West,11.5,-,N/A,,Clear,280,1999-01-02 19:52:00
3:52 PM,5.0,-9.9,50,30.50,10.0,Variable,5.8,-,N/A,,Clear,0,1999-01-02 20:52:00
4:52 PM,3.9,-9.9,53,30.52,10.0,Variable,4.6,-,N/A,,Clear,0,1999-01-02 21:52:00
5:52 PM,3.0,-9.0,57,30.52,10.0,North,6.9,-,N/A,,Clear,350,1999-01-02 22:52:00
6:52 PM,1.0,-8.0,66,30.51,10.0,Calm,Calm,-,N/A,,Clear,0,1999-01-02 23:52:00
7:52 PM,-0.9,-8.0,72,30.50,10.0,Calm,Calm,-,N/A,,Clear,0,1999-01-03 00:52:00
8:52 PM,1.0,-6.0,72,30.52,9.0,South,3.5,-,N/A,,Clear,180,1999-01-03 01:52:00
9:52 PM,3.0,-5.1,69,30.52,10.0,ENE,3.5,-,N/A,,Overcast,70,1999-01-03 02:52:00
10:52 PM,3.9,-5.1,66,30.50,10.0,Calm,Calm,-,N/A,,Clear,0,1999-01-03 03:52:00
11:52 PM,3.9,-4.0,70,30.48,10.0,Calm,Calm,-,N/A,,Clear,0,1999-01-03 04:52:00